FW2828 Weather Reports


Display with metric or nautical units.
time (UTC)temp
F
wind
direction
speed
MPH
gust
MPH
rain 1hr
in
rain 24hr
in
rain mn
in
humidity
%
barometer
mb
20260506023029 69 26 1.0 5.0 0.00 0.00 0.00 55 1013.0
20260506021538 71 332 1.0 5.0 0.00 0.00 0.00 51 1013.0
20260506020111 75 308 3.0 7.0 0.00 0.00 0.00 46 1012.8
20260506014532 77 318 2.0 6.0 0.00 0.00 0.00 45 1012.7
20260506013107 79 295 4.0 10.0 0.00 0.00 0.00 43 1012.7
20260506011531 79 290 2.0 6.0 0.00 0.00 0.00 43 1012.6
20260506004534 79 217 4.0 9.0 0.00 0.00 0.00 44 1012.6
20260506003036 79 254 3.0 10.0 0.00 0.00 0.00 44 1012.6
20260506001541 80 254 5.0 13.0 0.00 0.00 0.00 43 1012.6
20260506000126 80 272 5.0 11.0 0.00 0.00 0.00 45 1012.6
20260505233032 79 281 4.0 7.0 0.00 0.00 0.00 45 1012.7
20260505230030 77 324 5.0 11.0 0.00 0.00 0.00 48 1012.8
20260505224652 77 312 4.0 10.0 0.00 0.00 0.00 49 1013.0
20260505223107 76 327 3.0 8.0 0.00 0.00 0.00 49 1013.1
20260505221606 76 307 4.0 10.0 0.00 0.00 0.00 49 1013.2
20260505220107 75 319 4.0 11.0 0.00 0.00 0.00 50 1013.3
20260505213028 75 333 4.0 11.0 0.00 0.00 0.00 50 1013.5
20260505211531 75 328 2.0 7.0 0.00 0.00 0.00 49 1013.5
20260505210106 76 301 4.0 9.0 0.00 0.00 0.00 48 1013.6
20260505204530 77 327 4.0 9.0 0.00 0.00 0.00 46 1013.7
20260505203032 77 307 4.0 9.0 0.00 0.00 0.00 46 1013.9
20260505194529 78 344 3.0 10.0 0.00 0.00 0.00 44 1014.1
20260505193054 79 308 4.0 11.0 0.00 0.00 0.00 44 1014.2
20260505191531 79 13 1.0 7.0 0.00 0.00 0.00 44 1014.2
20260505190032 77 8 1.0 6.0 0.00 0.00 0.00 44 1014.3
20260505184606 77 321 2.0 9.0 0.00 0.00 0.00 45 1014.4
20260505183106 75 348 3.0 9.0 0.00 0.00 0.00 47 1014.4
20260505181531 75 336 3.0 10.0 0.00 0.00 0.00 49 1014.5
20260505174536 74 299 4.0 9.0 0.00 0.00 0.00 49 1014.3
20260505173029 74 253 2.0 4.0 0.00 0.00 0.00 49 1014.3
20260505171529 74 74 2.0 5.0 0.00 0.00 0.00 50 1014.4
20260505170035 74 313 1.0 5.0 0.00 0.00 0.00 50 1014.4
20260505164536 74 10 0.0 4.0 0.00 0.00 0.00 51 1014.3
20260505163031 73 41 0.0 4.0 0.00 0.00 0.00 53 1014.3
20260505161530 72 93 0.0 4.0 0.00 0.00 0.00 55 1014.4
20260505160126 70 93 0.0 4.0 0.00 0.00 0.00 59 1014.4
20260505153107 65 61 0.0 3.0 0.00 0.00 0.00 76 1014.4
20260505151532 59 62 0.0 3.0 0.00 0.00 0.00 84 1014.5
20260505124530 44 135 1.0 4.0 0.00 0.00 0.00 93 1013.5
20260505123031 45 150 1.0 4.0 0.00 0.00 0.00 93 1013.5
20260505121532 46 135 1.0 3.0 0.00 0.00 0.00 93 1013.5
20260505120105 46 144 2.0 5.0 0.00 0.00 0.00 93 1013.5
20260505113029 46 146 3.0 6.0 0.00 0.00 0.00 91 1013.4
20260505111531 47 144 2.0 3.0 0.00 0.00 0.00 90 1013.3
20260505101531 49 148 2.0 6.0 0.00 0.00 0.00 86 1013.0
20260505100036 49 164 1.0 5.0 0.00 0.00 0.00 84 1012.9
20260505094530 50 148 3.0 6.0 0.00 0.00 0.00 82 1012.9
20260505093031 52 127 2.0 5.0 0.00 0.00 0.00 80 1012.9
20260505091530 53 100 1.0 6.0 0.00 0.00 0.00 79 1012.8
20260505090030 55 145 2.0 6.0 0.00 0.00 0.00 79 1012.7
20260505084532 56 122 0.0 5.0 0.00 0.00 0.00 79 1012.6
20260505083116 56 231 0.0 6.0 0.00 0.00 0.00 76 1012.6
20260505064608 60 178 3.0 7.0 0.00 0.00 0.00 72 1012.2
20260505063029 61 116 1.0 10.0 0.00 0.00 0.00 71 1012.2
20260505061646 61 190 2.0 10.0 0.00 0.00 0.00 70 1012.3
20260505060037 61 187 3.0 10.0 0.00 0.00 0.00 69 1012.3
20260505054530 62 187 3.0 9.0 0.00 0.00 0.00 69 1012.3
20260505053031 61 177 5.0 14.0 0.00 0.00 0.00 68 1012.2
20260505051530 61 160 4.0 10.0 0.00 0.00 0.00 68 1012.1
20260505041531 62 77 1.0 6.0 0.00 0.00 0.00 58 1011.6
20260505040159 62 210 2.0 5.0 0.00 0.00 0.00 57 1011.3
20260505034528 63 194 2.0 9.0 0.00 0.00 0.00 53 1011.2
20260505031608 65 143 2.0 10.0 0.00 0.00 0.00 50 1010.7